[[{"header":{"parameterUnit":"m.s-1","parameterCategory":1,"la1":30.2991,"la2":30.254,"lo1":-89.0895,"lo2":-89.0444,"dy":0.0017,"dx":0.0017,"nx":28,"ny":28,"refTime":"2025-01-01T03:00:00:Z","depth":0,"parameterNumber":2,"parameterNumberName":"U-component_of_WINDS"},"data":[0,0,0,0,0,0,0,0,0,0,0,0,0,0,0,0,0,0,0,0,0,0,0,0,0,0,0,0,0,0,0,0,0,0,0,0,0,0,0,0,0,0,0,0,0,0,0,0,0,0,0,0,0,0,0,0,0,0,-1.5521,-1.5522,0,-1.5562,-1.5562,-1.5562,-1.5517,-1.5515,-1.5513,-1.5512,-1.5555,-1.5557,-1.556,0,0,0,0,0,0,0,0,0,0,0,0,0,-1.5405,-1.5408,-1.5521,-1.5522,-1.5522,-1.5561,-1.5562,-1.5563,-1.5517,-1.5515,-1.5513,-1.5511,-1.5554,-1.5557,-1.556,0,0,0,0,0,0,0,0,0,0,0,0,0,-1.5452,-1.5409,-1.5521,-1.5504,-1.5503,-1.5561,-1.5562,-1.5563,-1.5518,-1.5515,-1.5512,-1.551,-1.5553,-1.5557,-1.5561,-1.5638,0,0,-1.5573,-1.5575,0,0,0,0,0,0,0,0,-1.5449,-1.5456,-1.5506,-1.5505,-1.5504,-1.5531,-1.5537,-1.5588,-1.5518,-1.5512,-1.5512,-1.5509,-1.5549,-1.5553,-1.5567,-1.564,-1.5642,-1.5574,-1.5576,-1.5578,-1.5579,0,0,0,0,0,0,0,-1.5446,-1.5454,-1.5537,-1.5507,-1.5506,-1.5495,-1.5499,-1.5546,-1.5545,-1.5512,-1.5509,-1.5514,-1.5548,-1.5563,-1.5567,-1.5643,-1.5574,-1.5577,-1.558,-1.5582,-1.5782,-1.5785,0,0,0,0,0,0,-1.5445,-1.5452,-1.5536,-1.5538,-1.547,-1.5499,-1.5503,-1.5525,-1.5544,-1.5544,-1.5517,-1.5512,-1.5557,-1.5563,-1.5569,-1.5662,-1.5578,-1.5582,-1.5584,-1.578,-1.5783,-1.5786,0,0,0,0,0,0,-1.5442,-1.5453,-1.5534,-1.5494,-1.5504,-1.5504,-1.5529,-1.5528,-1.5542,-1.5547,-1.5547,-1.5532,-1.5555,-1.5563,-1.5621,-1.5663,-1.5584,-1.5588,-1.5776,-1.5781,-1.5785,-1.5848,0,0,0,0,0,0,-1.5439,-1.5452,-1.5481,-1.5495,-1.5506,-1.5586,-1.5532,-1.553,-1.5549,-1.5544,-1.5562,-1.5562,-1.5554,-1.5615,-1.5626,-1.5667,-1.5591,-1.5773,-1.5778,-1.5783,-1.5842,-1.5854,-1.5864,0,0,0,0,0,-1.5435,-1.5498,-1.5483,-1.5494,-1.5543,-1.5589,-1.5595,-1.5584,-1.5553,-1.5583,-1.5586,-1.5562,-1.5656,-1.5622,-1.5633,-1.5676,-1.577,-1.5777,-1.5783,-1.5837,-1.5851,-1.5863,0,0,0,0,0,0,-1.549,-1.5499,-1.5483,-1.5552,-1.557,-1.5581,-1.5618,-1.5599,-1.5626,-1.562,-1.5605,-1.561,-1.5672,-1.5679,-1.5641,-1.5752,-1.5708,-1.5717,-1.5746,-1.5759,-1.577,-1.5768,-1.5594,0,0,0,0,0,-1.5509,-1.5546,-1.5552,-1.5612,-1.5622,-1.5619,-1.5638,-1.5628,-1.5646,-1.5653,-1.5661,-1.568,-1.5713,-1.5736,-1.5767,-1.5842,-1.5846,-1.5877,-1.5888,-1.5896,-1.5905,-1.5946,-1.596,-1.5807,-1.5807,-1.5807,0,0,-1.5551,-1.5561,-1.5585,-1.5623,-1.5636,-1.5674,-1.5625,-1.5668,-1.5696,-1.566,-1.5716,-1.5722,-1.5742,-1.5809,-1.5839,-1.5817,-1.5948,-1.5905,-1.5912,-1.5916,-1.5954,-1.5968,-1.5981,-1.5811,-1.5811,-1.581,0,0,-1.5648,-1.5658,-1.571,-1.5723,-1.5742,-1.5739,-1.5752,-1.5766,-1.5768,-1.5824,-1.5797,-1.583,-1.5889,-1.5904,-1.592,-1.6021,-1.6,-1.6031,-1.6089,-1.6128,-1.6141,-1.6151,-1.6189,-1.6202,-1.6039,-1.6039,-1.604,0,-1.5698,-1.5754,-1.5739,-1.5783,-1.5802,-1.5769,-1.5822,-1.5835,-1.5864,-1.5878,-1.5852,-1.5925,-1.5936,-1.6006,-1.6031,-1.6044,-1.6058,-1.603,-1.614,-1.615,-1.616,-1.6196,-1.621,-1.6043,-1.6043,-1.6042,-1.6042,0,-1.5815,-1.5855,-1.5894,-1.5922,-1.5944,-1.5993,-1.5985,-1.6009,-1.5997,-1.5996,-1.6054,-1.6065,-1.6099,-1.6114,-1.6102,-1.6183,-1.6169,-1.6142,-1.6098,-1.6179,-1.6212,-1.6225,-1.6049,-1.6047,-1.6046,-1.6045,0,0,-1.5949,-1.5968,-1.5983,-1.5995,-1.6013,-1.6044,-1.609,-1.6122,-1.6144,-1.6164,-1.6204,-1.6253,-1.6228,-1.6246,-1.6235,-1.627,-1.635,-1.6238,-1.6239,-1.626,-1.6442,-1.6464,-1.648,-1.6335,-1.6338,-1.634,-1.6441,0,-1.6047,-1.6128,-1.6116,-1.6194,-1.6231,-1.62,-1.624,-1.6256,-1.6257,-1.6288,-1.6288,-1.6325,-1.6288,-1.6298,-1.6331,-1.6334,-1.6387,-1.6326,-1.6374,-1.6376,-1.6372,-1.6497,-1.6521,-1.6615,-1.6453,-1.6456,-1.6457,0,-1.6173,-1.6198,-1.628,-1.6293,-1.6308,-1.6345,-1.6373,-1.6403,-1.642,-1.6418,-1.6437,-1.642,-1.6467,-1.6419,-1.6484,-1.6443,-1.6461,-1.6465,-1.6469,-1.6475,-1.6423,-1.6508,-1.6645,-1.666,-1.6477,-1.6476,-1.6474,0,-1.6265,-1.6319,-1.6375,-1.6387,-1.6402,-1.6429,-1.6437,-1.6451,-1.6471,-1.6495,-1.6508,-1.6538,-1.6555,-1.6578,-1.657,-1.6536,-1.6637,-1.6589,-1.6638,-1.6638,-1.6663,-1.6662,-1.6806,-1.667,-1.667,-1.667,-1.667,0,-1.6378,-1.643,-1.6417,-1.6452,-1.6509,-1.6493,-1.655,-1.6554,-1.6567,-1.6603,-1.6576,-1.661,-1.6595,-1.6628,-1.6621,-1.6677,-1.6684,-1.6684,-1.6682,-1.6688,-1.6689,-1.6702,-1.6696,-1.6674,-1.6673,-1.6672,-1.6672,0,-1.6492,-1.6485,-1.6544,-1.6553,-1.6557,-1.6599,-1.6607,-1.664,-1.6637,-1.6683,-1.6692,-1.6689,-1.6726,-1.6719,-1.676,-1.6755,-1.6825,-1.6814,-1.682,-1.6818,-1.6868,-1.6865,-1.7028,-1.705,-1.6898,-1.69,-1.6901,0,-1.6565,-1.6604,-1.6617,-1.6639,-1.6649,-1.6684,-1.6704,-1.6689,-1.6711,-1.6733,-1.6764,-1.6798,-1.6825,-1.6886,-1.6888,-1.6919,-1.691,-1.6965,-1.6914,-1.6919,-1.6913,-1.6912,-1.6916,-1.6976,-1.6978,-1.6979,-1.698,0,-1.6697,-1.6691,-1.6721,-1.675,-1.6774,-1.6796,-1.6816,-1.6835,-1.6822,-1.6848,-1.6886,-1.6907,-1.6948,-1.6983,-1.7012,-1.702,-1.6999,-1.6995,-1.7009,-1.7017,-1.7019,-1.702,-1.685,-1.6993,-1.6991,-1.699,-1.699,-1.6989,-1.6794,-1.6828,-1.6842,-1.6876,-1.6889,-1.6908,-1.6939,-1.694,-1.6971,-1.7004,-1.6993,-1.7036,-1.7051,-1.7088,-1.7099,-1.7132,-1.7112,-1.7131,-1.7136,-1.7142,-1.7149,-1.7011,-1.7137,-1.7137,-1.7137,-1.7136,-1.7136,0,-1.6926,-1.6933,-1.6965,-1.6993,-1.702,-1.6995,-1.7015,-1.704,-1.7078,-1.7094,-1.7121,-1.7164,-1.7198,-1.7201,-1.7233,-1.7259,-1.725,-1.7268,-1.7267,-1.727,-1.7164,-1.715,-1.7275,-1.7275,-1.7275,-1.7275,-1.7275,-1.7275,-1.6998,-1.7054,-1.705,-1.7112,-1.7119,-1.7161,-1.7175,-1.7192,-1.7204,-1.7254,-1.7281,-1.7283,-1.7294,-1.7326,-1.7356,-1.7356,-1.737,-1.7392,-1.7389,-1.7291,-1.7277,-1.7264,-1.7251,-1.7395,-1.7395,-1.7492,-1.7493,-1.7494]},{"header":{"parameterUnit":"m.s-1","parameterCategory":1,"la1":30.2991,"la2":30.254,"lo1":-89.0895,"lo2":-89.0444,"dy":0.0017,"dx":0.0017,"nx":28,"ny":28,"refTime":"2025-01-01T03:00:00:Z","depth":0,"parameterNumber":3,"parameterNumberName":"V-component_of_WINDS"},"data":[0,0,0,0,0,0,0,0,0,0,0,0,0,0,0,0,0,0,0,0,0,0,0,0,0,0,0,0,0,0,0,0,0,0,0,0,0,0,0,0,0,0,0,0,0,0,0,0,0,0,0,0,0,0,0,0,0,0,-5.7727,-5.7728,0,-5.7828,-5.783,-5.7831,-5.7783,-5.7781,-5.7778,-5.7776,-5.7875,-5.788,-5.7885,0,0,0,0,0,0,0,0,0,0,0,0,0,-5.7488,-5.7493,-5.7727,-5.7728,-5.773,-5.7828,-5.783,-5.7831,-5.7784,-5.7781,-5.7778,-5.7775,-5.7874,-5.7879,-5.7886,0,0,0,0,0,0,0,0,0,0,0,0,0,-5.7591,-5.7494,-5.7727,-5.7718,-5.7718,-5.7828,-5.783,-5.7831,-5.7785,-5.7781,-5.7777,-5.7773,-5.7872,-5.7879,-5.7886,-5.8009,0,0,-5.7909,-5.7913,0,0,0,0,0,0,0,0,-5.7585,-5.76,-5.7718,-5.7719,-5.7719,-5.779,-5.7782,-5.7891,-5.7786,-5.7759,-5.7776,-5.7772,-5.7849,-5.7859,-5.7886,-5.8014,-5.8018,-5.791,-5.7915,-5.7918,-5.792,0,0,0,0,0,0,0,-5.7578,-5.7595,-5.7767,-5.772,-5.7721,-5.7708,-5.7718,-5.7802,-5.7824,-5.7761,-5.7758,-5.7771,-5.7849,-5.7879,-5.7888,-5.8019,-5.791,-5.7916,-5.7921,-5.7924,-5.8253,-5.8257,0,0,0,0,0,0,-5.7572,-5.7589,-5.7764,-5.777,-5.7642,-5.7715,-5.7727,-5.7771,-5.7823,-5.7828,-5.7774,-5.7768,-5.7868,-5.7879,-5.7891,-5.8039,-5.7918,-5.7925,-5.7929,-5.8249,-5.8254,-5.8259,0,0,0,0,0,0,-5.7567,-5.7588,-5.776,-5.7679,-5.77,-5.7723,-5.7773,-5.7775,-5.7804,-5.7833,-5.7836,-5.7801,-5.7865,-5.7881,-5.798,-5.8042,-5.7928,-5.7935,-5.8244,-5.825,-5.8256,-5.8335,0,0,0,0,0,0,-5.756,-5.7586,-5.7634,-5.768,-5.7704,-5.7849,-5.7777,-5.7779,-5.7818,-5.7812,-5.7859,-5.7863,-5.7863,-5.797,-5.7988,-5.805,-5.7941,-5.8238,-5.8247,-5.8254,-5.8327,-5.8343,-5.8357,0,0,0,0,0,-5.7552,-5.7651,-5.7637,-5.7658,-5.7765,-5.7853,-5.7866,-5.7866,-5.7823,-5.7871,-5.7889,-5.7862,-5.8032,-5.798,-5.8001,-5.8066,-5.8235,-5.8244,-5.8254,-5.832,-5.834,-5.8357,0,0,0,0,0,0,-5.761,-5.7657,-5.7642,-5.776,-5.7803,-5.7845,-5.7905,-5.7887,-5.7941,-5.7933,-5.7928,-5.794,-5.8043,-5.8064,-5.8006,-5.8187,-5.8126,-5.814,-5.817,-5.8189,-5.8204,-5.8197,-5.7947,0,0,0,0,0,-5.7637,-5.7706,-5.7742,-5.7842,-5.7865,-5.7882,-5.7919,-5.7916,-5.7959,-5.7977,-5.8003,-5.8045,-5.8108,-5.8149,-5.8209,-5.8329,-5.8339,-5.8384,-5.8399,-5.8411,-5.8424,-5.8489,-5.851,-5.829,-5.829,-5.829,0,0,-5.7692,-5.7727,-5.777,-5.7855,-5.7888,-5.7958,-5.7897,-5.7973,-5.8025,-5.7988,-5.8085,-5.8105,-5.8152,-5.8263,-5.8313,-5.8283,-5.8486,-5.8423,-5.8433,-5.8439,-5.8501,-5.8522,-5.854,-5.8296,-5.8295,-5.8294,0,0,-5.783,-5.7863,-5.795,-5.7985,-5.8036,-5.8046,-5.8067,-5.8113,-5.8125,-5.8222,-5.8196,-5.8256,-5.8365,-5.8399,-5.8431,-5.8582,-5.8558,-5.8601,-5.868,-5.8744,-5.8761,-5.8776,-5.8831,-5.885,-5.8613,-5.8613,-5.8614,0,-5.7892,-5.7998,-5.7997,-5.8077,-5.8115,-5.8086,-5.8174,-5.8206,-5.8274,-5.83,-5.8266,-5.8402,-5.8432,-5.8551,-5.8588,-5.8614,-5.8637,-5.8596,-5.8759,-5.8774,-5.8789,-5.884,-5.8861,-5.8618,-5.8618,-5.8617,-5.8617,0,-5.8073,-5.8147,-5.8211,-5.8279,-5.8324,-5.8407,-5.8417,-5.8462,-5.8454,-5.8468,-5.8567,-5.8601,-5.8667,-5.8695,-5.8687,-5.8813,-5.8793,-5.8759,-5.8698,-5.8815,-5.8863,-5.8883,-5.8625,-5.8624,-5.8622,-5.8621,0,0,-5.825,-5.8317,-5.8341,-5.8371,-5.8426,-5.8482,-5.8563,-5.863,-5.8669,-5.8716,-5.8784,-5.8876,-5.8846,-5.8882,-5.8877,-5.8933,-5.9051,-5.8893,-5.8893,-5.8921,-5.9192,-5.9218,-5.9241,-5.9035,-5.9039,-5.9042,-5.9188,0,-5.8392,-5.8537,-5.8538,-5.8671,-5.8739,-5.8712,-5.8783,-5.8823,-5.8838,-5.8896,-5.8911,-5.8977,-5.8932,-5.8953,-5.9007,-5.9025,-5.9105,-5.9015,-5.9098,-5.9101,-5.9088,-5.9266,-5.9293,-5.943,-5.9207,-5.921,-5.9212,0,-5.8578,-5.8633,-5.8773,-5.8818,-5.8847,-5.8911,-5.8972,-5.9028,-5.9073,-5.9079,-5.912,-5.9107,-5.9188,-5.9125,-5.9236,-5.9175,-5.9208,-5.9222,-5.9227,-5.9236,-5.9164,-5.928,-5.9473,-5.9494,-5.9242,-5.924,-5.9238,0,-5.8694,-5.8803,-5.8901,-5.8928,-5.8983,-5.9029,-5.9053,-5.9094,-5.9134,-5.9186,-5.9212,-5.9273,-5.9306,-5.9353,-5.9356,-5.9309,-5.9469,-5.9405,-5.9476,-5.9476,-5.9511,-5.9509,-5.9714,-5.9532,-5.9531,-5.9531,-5.9531,0,-5.8853,-5.894,-5.8955,-5.9015,-5.9111,-5.9111,-5.9206,-5.9226,-5.9263,-5.9325,-5.9305,-5.9364,-5.9364,-5.9424,-5.9427,-5.9519,-5.9534,-5.9541,-5.954,-5.9543,-5.9543,-5.9566,-5.9557,-5.9536,-5.9535,-5.9534,-5.9533,0,-5.9,-5.9014,-5.9119,-5.9162,-5.9175,-5.9244,-5.9281,-5.9338,-5.935,-5.943,-5.9448,-5.9468,-5.9537,-5.9545,-5.9625,-5.9627,-5.9738,-5.9727,-5.9724,-5.9723,-5.9793,-5.9787,-6.0021,-6.0051,-5.9849,-5.9851,-5.9852,0,-5.9102,-5.9168,-5.9219,-5.9261,-5.9289,-5.9355,-5.9396,-5.9398,-5.9441,-5.9497,-5.9547,-5.9615,-5.9669,-5.9781,-5.9801,-5.9862,-5.9853,-5.9931,-5.9862,-5.9863,-5.9855,-5.9852,-5.9858,-5.9944,-5.9947,-5.9948,-5.995,0,-5.928,-5.9284,-5.9345,-5.9408,-5.9458,-5.9508,-5.9554,-5.9589,-5.9596,-5.9646,-5.9717,-5.976,-5.9842,-5.991,-5.997,-5.9993,-5.9973,-5.9971,-5.9991,-5.9995,-5.9991,-5.9995,-5.9761,-5.9966,-5.9965,-5.9963,-5.9962,-5.9962,-5.9408,-5.9466,-5.9512,-5.958,-5.9616,-5.966,-5.9716,-5.9736,-5.9796,-5.9865,-5.9861,-5.994,-5.9982,-6.0062,-6.0089,-6.015,-6.0124,-6.0153,-6.016,-6.0167,-6.0175,-5.9981,-6.0161,-6.016,-6.016,-6.0159,-6.0159,0,-5.9586,-5.9614,-5.9677,-5.9744,-5.9798,-5.9775,-5.9826,-5.9872,-5.9942,-5.9984,-6.0038,-6.012,-6.0186,-6.0211,-6.0274,-6.0318,-6.031,-6.0335,-6.0332,-6.0337,-6.0194,-6.0171,-6.034,-6.034,-6.034,-6.034,-6.034,-6.034,-5.9685,-5.9783,-5.9792,-5.9906,-5.9932,-6.0012,-6.0042,-6.0082,-6.0116,-6.0209,-6.0264,-6.0281,-6.0316,-6.0381,-6.044,-6.0445,-6.0469,-6.0498,-6.05,-6.0366,-6.0347,-6.033,-6.0309,-6.0503,-6.0504,-6.0638,-6.0639,-6.064]}]]